| time (UTC) | temp F | wind direction | speed MPH | gust MPH | rain 1hr in | rain 24hr in | rain mn in | humidity % | barometer mb |
| 20260905201545 | 65 | 246 | 3.0 | 8.0 | 0.00 | 0.00 | 0.00 | 56 | 1008.8 |
| 20260905200107 | 62 | 255 | 0.0 | 6.0 | 0.00 | 0.00 | 0.00 | 63 | 1009.1 |
| 20260905194540 | 58 | 201 | 1.0 | 3.0 | 0.00 | 0.00 | 0.00 | 70 | 1009.1 |
| 20260905193041 | 55 | 243 | 0.0 | 6.0 | 0.00 | 0.00 | 0.00 | 75 | 1009.1 |
| 20260905191539 | 54 | 59 | 2.0 | 7.0 | 0.00 | 0.00 | 0.00 | 75 | 1009.1 |
| 20260905190039 | 53 | 181 | 0.0 | 6.0 | 0.00 | 0.00 | 0.00 | 76 | 1009.0 |
| 20260905184548 | 53 | 29 | 0.0 | 4.0 | 0.00 | 0.00 | 0.00 | 77 | 1009.2 |
| 20260905183041 | 53 | 121 | 1.0 | 5.0 | 0.00 | 0.00 | 0.00 | 77 | 1008.9 |
| 20260905181544 | 52 | 120 | 0.0 | 2.0 | 0.00 | 0.00 | 0.00 | 77 | 1009.0 |
| 20260905180041 | 52 | 120 | 1.0 | 6.0 | 0.00 | 0.00 | 0.00 | 76 | 1009.0 |
| 20260905174536 | 52 | 138 | 3.0 | 7.0 | 0.00 | 0.00 | 0.00 | 75 | 1008.9 |
| 20260905173043 | 52 | 110 | 2.0 | 10.0 | 0.00 | 0.00 | 0.00 | 75 | 1008.8 |
| 20260905171536 | 52 | 165 | 5.0 | 11.0 | 0.00 | 0.00 | 0.00 | 75 | 1008.7 |
| 20260905170034 | 52 | 142 | 2.0 | 9.0 | 0.00 | 0.00 | 0.00 | 75 | 1008.7 |
| 20260905164530 | 52 | 156 | 4.0 | 9.0 | 0.00 | 0.00 | 0.00 | 75 | 1008.7 |
| 20260905163027 | 52 | 135 | 3.0 | 7.0 | 0.00 | 0.00 | 0.00 | 75 | 1008.8 |
| 20260905161527 | 52 | 166 | 3.0 | 7.0 | 0.00 | 0.00 | 0.00 | 74 | 1008.9 |
| 20260905160025 | 52 | 89 | 1.0 | 3.0 | 0.00 | 0.00 | 0.00 | 74 | 1009.0 |
| 20260905154523 | 52 | 116 | 2.0 | 5.0 | 0.00 | 0.00 | 0.00 | 72 | 1009.1 |
| 20260905153028 | 52 | 120 | 0.0 | 4.0 | 0.00 | 0.00 | 0.00 | 73 | 1009.3 |
| 20260905151520 | 53 | 83 | 0.0 | 7.0 | 0.00 | 0.00 | 0.00 | 70 | 1009.1 |
| 20260905150023 | 54 | 40 | 1.0 | 3.0 | 0.00 | 0.00 | 0.00 | 67 | 1009.1 |
| 20260905144516 | 55 | 106 | 0.0 | 3.0 | 0.00 | 0.00 | 0.00 | 65 | 1009.1 |
| 20260905143022 | 57 | 103 | 0.0 | 2.0 | 0.00 | 0.00 | 0.00 | 61 | 1009.2 |
| 20260905141514 | 58 | 184 | 1.0 | 10.0 | 0.00 | 0.00 | 0.00 | 58 | 1009.0 |
| 20260905140011 | 55 | 204 | 5.0 | 12.0 | 0.00 | 0.00 | 0.00 | 63 | 1009.3 |
| 20260905134523 | 56 | 161 | 0.0 | 5.0 | 0.00 | 0.00 | 0.00 | 62 | 1009.6 |
| 20260905133011 | 58 | 115 | 2.0 | 6.0 | 0.00 | 0.00 | 0.00 | 60 | 1009.5 |
| 20260905131510 | 59 | 183 | 1.0 | 9.0 | 0.00 | 0.00 | 0.00 | 56 | 1009.4 |
| 20260905130008 | 59 | 162 | 1.0 | 8.0 | 0.00 | 0.00 | 0.00 | 56 | 1009.6 |
| 20260905124510 | 61 | 143 | 2.0 | 12.0 | 0.00 | 0.00 | 0.00 | 54 | 1009.5 |
| 20260905123025 | 61 | 147 | 5.0 | 16.0 | 0.00 | 0.00 | 0.00 | 53 | 1009.7 |
| 20260905121505 | 60 | 191 | 6.0 | 16.0 | 0.00 | 0.00 | 0.00 | 54 | 1009.6 |
| 20260905120004 | 60 | 238 | 3.0 | 10.0 | 0.00 | 0.00 | 0.00 | 55 | 1009.6 |
| 20260905114502 | 59 | 183 | 0.0 | 11.0 | 0.00 | 0.00 | 0.00 | 57 | 1009.8 |
| 20260905113001 | 57 | 201 | 4.0 | 10.0 | 0.00 | 0.00 | 0.00 | 62 | 1009.9 |
| 20260905111605 | 56 | 188 | 2.0 | 6.0 | 0.00 | 0.00 | 0.00 | 65 | 1010.1 |
| 20260905110059 | 55 | 172 | 4.0 | 9.0 | 0.00 | 0.00 | 0.00 | 68 | 1010.1 |
| 20260905104555 | 56 | 267 | 0.0 | 4.0 | 0.00 | 0.00 | 0.00 | 68 | 1010.1 |
| 20260905103058 | 58 | 229 | 0.0 | 4.0 | 0.00 | 0.00 | 0.00 | 63 | 1010.2 |
| 20260905101548 | 59 | 229 | 0.0 | 4.0 | 0.00 | 0.00 | 0.00 | 60 | 1010.2 |
| 20260905100054 | 60 | 140 | 3.0 | 6.0 | 0.00 | 0.00 | 0.00 | 57 | 1009.9 |
| 20260905094542 | 61 | 193 | 0.0 | 10.0 | 0.00 | 0.00 | 0.00 | 53 | 1010.3 |
| 20260905093041 | 61 | 174 | 3.0 | 13.0 | 0.00 | 0.00 | 0.00 | 52 | 1010.2 |
| 20260905091546 | 61 | 162 | 6.0 | 11.0 | 0.00 | 0.00 | 0.00 | 53 | 1010.3 |
| 20260905090036 | 61 | 149 | 5.0 | 13.0 | 0.00 | 0.00 | 0.00 | 53 | 1010.5 |
| 20260905084534 | 61 | 183 | 3.0 | 12.0 | 0.00 | 0.00 | 0.00 | 54 | 1010.6 |
| 20260905083033 | 61 | 199 | 3.0 | 9.0 | 0.00 | 0.00 | 0.00 | 54 | 1010.8 |
| 20260905081529 | 62 | 219 | 4.0 | 11.0 | 0.00 | 0.00 | 0.00 | 52 | 1010.8 |
| 20260905080041 | 62 | 168 | 8.0 | 17.0 | 0.00 | 0.00 | 0.00 | 52 | 1011.0 |
| 20260905074528 | 61 | 129 | 7.0 | 21.0 | 0.00 | 0.00 | 0.00 | 53 | 1011.1 |
| 20260905073027 | 61 | 161 | 6.0 | 13.0 | 0.00 | 0.00 | 0.00 | 54 | 1011.3 |
| 20260905071525 | 62 | 146 | 4.0 | 12.0 | 0.00 | 0.00 | 0.00 | 52 | 1011.4 |
| 20260905070030 | 62 | 184 | 5.0 | 11.0 | 0.00 | 0.00 | 0.00 | 53 | 1011.4 |
| 20260905064520 | 62 | 241 | 5.0 | 12.0 | 0.00 | 0.00 | 0.00 | 52 | 1011.6 |
| 20260905063019 | 62 | 147 | 4.0 | 11.0 | 0.00 | 0.00 | 0.00 | 52 | 1011.6 |
| 20260905061522 | 62 | 132 | 6.0 | 11.0 | 0.00 | 0.00 | 0.00 | 53 | 1011.8 |
| 20260905060036 | 63 | 140 | 3.0 | 10.0 | 0.00 | 0.00 | 0.00 | 52 | 1011.9 |
| 20260905054516 | 64 | 213 | 2.0 | 14.0 | 0.00 | 0.00 | 0.00 | 50 | 1012.0 |
| 20260905053016 | 64 | 191 | 6.0 | 14.0 | 0.00 | 0.00 | 0.00 | 50 | 1012.0 |
| 20260905051520 | 64 | 359 | 5.0 | 13.0 | 0.00 | 0.00 | 0.00 | 50 | 1012.0 |
| 20260905050018 | 64 | 202 | 4.0 | 9.0 | 0.00 | 0.00 | 0.00 | 50 | 1012.1 |
| 20260905044518 | 64 | 140 | 2.0 | 8.0 | 0.00 | 0.00 | 0.00 | 50 | 1012.1 |
| 20260905043012 | 63 | 249 | 4.0 | 8.0 | 0.00 | 0.00 | 0.00 | 54 | 1012.1 |
| 20260905041512 | 63 | 359 | 0.0 | 1.0 | 0.00 | 0.00 | 0.00 | 67 | 1012.2 |
| 20260905040012 | 64 | 50 | 0.0 | 0.0 | 0.00 | 0.00 | 0.00 | 65 | 1012.2 |
| 20260905034515 | 64 | 50 | 0.0 | 0.0 | 0.00 | 0.00 | 0.00 | 63 | 1012.4 |
| 20260905033009 | 65 | 51 | 0.0 | 0.0 | 0.00 | 0.00 | 0.00 | 62 | 1012.4 |
| 20260905031512 | 66 | 50 | 0.0 | 0.0 | 0.00 | 0.00 | 0.00 | 59 | 1012.4 |
| 20260905030008 | 66 | 50 | 0.0 | 0.0 | 0.00 | 0.00 | 0.00 | 57 | 1012.3 |
| 20260905024507 | 67 | 50 | 0.0 | 0.0 | 0.00 | 0.00 | 0.00 | 54 | 1012.5 |
| 20260905023013 | 68 | 50 | 0.0 | 0.0 | 0.00 | 0.00 | 0.00 | 52 | 1012.7 |
| 20260905021505 | 68 | 51 | 0.0 | 2.0 | 0.00 | 0.00 | 0.00 | 49 | 1012.7 |
| 20260905020003 | 69 | 50 | 0.0 | 3.0 | 0.00 | 0.00 | 0.00 | 46 | 1012.8 |
| 20260905014503 | 69 | 172 | 0.0 | 1.0 | 0.00 | 0.00 | 0.00 | 47 | 1012.8 |
| 20260905013001 | 70 | 172 | 0.0 | 5.0 | 0.00 | 0.00 | 0.00 | 43 | 1013.0 |
| 20260905011617 | 70 | 253 | 1.0 | 4.0 | 0.00 | 0.00 | 0.00 | 43 | 1013.0 |
| 20260905010057 | 69 | 183 | 0.0 | 4.0 | 0.00 | 0.00 | 0.00 | 45 | 1013.1 |
| 20260905004553 | 68 | 311 | 0.0 | 2.0 | 0.00 | 0.00 | 0.00 | 52 | 1013.4 |
| 20260905003055 | 67 | 311 | 0.0 | 0.0 | 0.00 | 0.00 | 0.00 | 54 | 1013.5 |
| 20260905001600 | 66 | 311 | 0.0 | 2.0 | 0.00 | 0.00 | 0.00 | 56 | 1013.6 |
| 20260905000045 | 65 | 311 | 0.0 | 0.0 | 0.00 | 0.00 | 0.00 | 58 | 1013.9 |
| 20260904234544 | 65 | 311 | 0.0 | 0.0 | 0.00 | 0.00 | 0.00 | 58 | 1013.8 |
| 20260904233053 | 64 | 311 | 0.0 | 0.0 | 0.00 | 0.00 | 0.00 | 57 | 1013.9 |
| 20260904231542 | 63 | 311 | 0.0 | 0.0 | 0.00 | 0.00 | 0.00 | 57 | 1014.0 |
| 20260904230044 | 63 | 359 | 0.0 | 1.0 | 0.00 | 0.00 | 0.00 | 59 | 1014.0 |
| 20260904224541 | 62 | 307 | 2.0 | 5.0 | 0.00 | 0.00 | 0.00 | 60 | 1014.1 |
| 20260904223040 | 63 | 254 | 1.0 | 4.0 | 0.00 | 0.00 | 0.00 | 60 | 1014.1 |
| 20260904221541 | 63 | 283 | 0.0 | 3.0 | 0.00 | 0.00 | 0.00 | 60 | 1014.1 |
| 20260904220040 | 63 | 280 | 2.0 | 5.0 | 0.00 | 0.00 | 0.00 | 60 | 1014.3 |
| 20260904214538 | 63 | 277 | 2.0 | 5.0 | 0.00 | 0.00 | 0.00 | 59 | 1014.4 |
| 20260904213037 | 63 | 339 | 0.0 | 5.0 | 0.00 | 0.00 | 0.00 | 61 | 1014.4 |
| 20260904211538 | 63 | 339 | 1.0 | 5.0 | 0.00 | 0.00 | 0.00 | 60 | 1014.5 |
| 20260904210036 | 65 | 262 | 1.0 | 4.0 | 0.00 | 0.00 | 0.00 | 54 | 1014.4 |
| 20260904204534 | 65 | 207 | 0.0 | 10.0 | 0.00 | 0.00 | 0.00 | 46 | 1014.3 |
| 20260904203040 | 64 | 271 | 2.0 | 8.0 | 0.00 | 0.00 | 0.00 | 46 | 1014.3 |